EJU35FN LICJ-LIMC

Flight info

Callsign EJU35FN
Flight time 1h 42m
Altitude 34000
Route GIANO DCT RONAB DCT RUVIP DCT BETOT DCT POKAV DCT TINTO DCT ELB DCT UPDIN DCT SPEZI DCT IDONA Y69 MEBUR
Aircraft A319/M-SDE3FGHIRWY/LB1

Departure

Time 2026-05-05 18:41
Airport Falcone–Borsellino Airport (LICJ)

Arrival

Time 2026-05-05 20:23
Airport Milan Malpensa International Airport (LIMC)
Time Latitude Longitude Altitude Speed Heading
2026-05-05 18:02 38.18573 13.10663 53 ft 0 kts 337°
2026-05-05 18:27 38.18562 13.10669 53 ft 4 kts 338°
2026-05-05 18:28 38.18511 13.10687 53 ft 4 kts
2026-05-05 18:28 38.18489 13.10678 52 ft 2 kts 57°
2026-05-05 18:28 38.18488 13.10675 51 ft 0 kts 59°
2026-05-05 18:33 38.18488 13.10676 53 ft 0 kts 59°
2026-05-05 18:33 38.18492 13.10684 53 ft 2 kts 62°
2026-05-05 18:34 38.18499 13.10704 52 ft 3 kts 65°
2026-05-05 18:34 38.18505 13.10736 53 ft 4 kts 86°
2026-05-05 18:34 38.18497 13.10777 53 ft 6 kts 108°
2026-05-05 18:34 38.18483 13.10829 53 ft 7 kts 108°
2026-05-05 18:35 38.18469 13.10893 53 ft 8 kts 102°
2026-05-05 18:35 38.18434 13.10954 53 ft 9 kts 138°
2026-05-05 18:35 38.18436 13.11032 50 ft 10 kts 62°
2026-05-05 18:35 38.18467 13.11118 53 ft 11 kts 66°
2026-05-05 18:36 38.18501 13.11215 52 ft 13 kts 66°
2026-05-05 18:36 38.18538 13.11321 50 ft 14 kts 67°
2026-05-05 18:36 38.18575 13.11438 53 ft 15 kts 68°
2026-05-05 18:36 38.18614 13.11563 52 ft 16 kts 74°
2026-05-05 18:37 38.18611 13.11684 53 ft 4 kts 98°
2026-05-05 18:37 38.18606 13.11726 51 ft 5 kts 98°
2026-05-05 18:37 38.18600 13.11779 53 ft 7 kts 98°
2026-05-05 18:37 38.18592 13.11844 50 ft 8 kts 105°
2026-05-05 18:38 38.18554 13.11900 53 ft 9 kts 152°
2026-05-05 18:38 38.18516 13.11881 53 ft 6 kts 244°
2026-05-05 18:38 38.18508 13.11858 53 ft 0 kts 245°
2026-05-05 18:40 38.18493 13.11816 53 ft 23 kts 246°
2026-05-05 18:40 38.18318 13.11300 53 ft 105 kts 247°
2026-05-05 18:40 38.17926 13.10141 60 ft 176 kts 246°
2026-05-05 18:40 38.17443 13.08648 646 ft 188 kts 249°
2026-05-05 18:41 38.16986 13.07074 1424 ft 192 kts 250°
2026-05-05 18:41 38.16521 13.05452 2060 ft 199 kts 250°
2026-05-05 18:41 38.16045 13.03787 2745 ft 202 kts 250°
2026-05-05 18:41 38.15717 13.02054 3410 ft 205 kts 268°
2026-05-05 18:42 38.15875 13.00254 4095 ft 206 kts 282°
2026-05-05 18:42 38.16400 12.98553 4766 ft 208 kts 300°
2026-05-05 18:42 38.17244 12.97049 5432 ft 210 kts 308°
2026-05-05 18:42 38.18160 12.95593 6095 ft 212 kts 309°
2026-05-05 18:43 38.19093 12.94126 6755 ft 214 kts 309°
2026-05-05 18:43 38.20028 12.92647 7401 ft 216 kts 308°
2026-05-05 18:43 38.20954 12.91125 8044 ft 218 kts 307°
2026-05-05 18:43 38.21859 12.89607 8806 ft 212 kts 307°
2026-05-05 18:44 38.22756 12.88094 9309 ft 221 kts 307°
2026-05-05 18:44 38.23701 12.86500 9908 ft 224 kts 307°
2026-05-05 18:44 38.24648 12.84908 10517 ft 227 kts 307°
2026-05-05 18:44 38.25561 12.83373 11082 ft 229 kts 307°
2026-05-05 18:45 38.26525 12.81753 11657 ft 231 kts 307°
2026-05-05 18:45 38.27498 12.80115 12227 ft 233 kts 307°
2026-05-05 18:45 38.28479 12.78463 12788 ft 235 kts 307°
2026-05-05 18:45 38.29621 12.76923 13116 ft 249 kts 322°
2026-05-05 18:46 38.31209 12.75800 13284 ft 274 kts 341°
2026-05-05 18:46 38.33149 12.75288 13523 ft 297 kts 351°
2026-05-05 18:46 38.35205 12.74511 13701 ft 321 kts 337°
2026-05-05 18:46 38.37309 12.73360 14091 ft 335 kts 336°
2026-05-05 18:47 38.39455 12.72148 14709 ft 340 kts 336°
2026-05-05 18:47 38.41624 12.70903 14968 ft 342 kts 335°
2026-05-05 18:47 38.43804 12.69642 15536 ft 345 kts 335°
2026-05-05 18:47 38.45999 12.68376 16226 ft 348 kts 335°
2026-05-05 18:48 38.48219 12.67097 16875 ft 351 kts 335°
2026-05-05 18:48 38.50458 12.65810 17504 ft 355 kts 336°
2026-05-05 18:48 38.52717 12.64514 18118 ft 358 kts 335°
2026-05-05 18:48 38.54998 12.63200 18717 ft 361 kts 335°
2026-05-05 18:49 38.57303 12.61873 19302 ft 364 kts 335°
2026-05-05 18:49 38.59620 12.60535 19886 ft 368 kts 335°
2026-05-05 18:49 38.61961 12.59182 20437 ft 371 kts 335°
2026-05-05 18:49 38.64319 12.57822 20997 ft 374 kts 336°
2026-05-05 18:50 38.66671 12.56468 21533 ft 377 kts 336°
2026-05-05 18:50 38.69103 12.55070 22072 ft 380 kts 336°
2026-05-05 18:50 38.71526 12.53673 22595 ft 383 kts 336°
2026-05-05 18:50 38.73931 12.52287 23101 ft 386 kts 336°
2026-05-05 18:51 38.76423 12.50850 23599 ft 389 kts 335°
2026-05-05 18:51 38.78895 12.49419 24083 ft 392 kts 335°
2026-05-05 18:51 38.81385 12.47971 24538 ft 394 kts 335°
2026-05-05 18:51 38.83897 12.46509 24983 ft 397 kts 335°
2026-05-05 18:52 38.86419 12.45039 25422 ft 400 kts 335°
2026-05-05 18:52 38.88964 12.43574 25847 ft 402 kts 336°
2026-05-05 18:52 38.91507 12.42167 26256 ft 405 kts 337°
2026-05-05 18:52 38.94117 12.40753 26658 ft 407 kts 337°
2026-05-05 18:53 38.96736 12.39342 27054 ft 410 kts 337°
2026-05-05 18:53 38.99372 12.37921 27437 ft 412 kts 337°
2026-05-05 18:53 39.02023 12.36484 27818 ft 415 kts 337°
2026-05-05 18:53 39.04686 12.35032 28192 ft 417 kts 337°
2026-05-05 18:54 39.07365 12.33554 28558 ft 419 kts 336°
2026-05-05 18:54 39.10051 12.32063 28914 ft 422 kts 336°
2026-05-05 18:54 39.12750 12.30561 29261 ft 424 kts 336°
2026-05-05 18:54 39.15466 12.29050 29597 ft 426 kts 336°
2026-05-05 18:55 39.18197 12.27536 29927 ft 428 kts 336°
2026-05-05 18:55 39.20940 12.26019 30241 ft 430 kts 336°
2026-05-05 18:55 39.23698 12.24496 30554 ft 432 kts 336°
2026-05-05 18:55 39.26470 12.22961 30853 ft 434 kts 336°
2026-05-05 18:56 39.29256 12.21419 31138 ft 436 kts 336°
2026-05-05 18:56 39.32054 12.19869 31438 ft 438 kts 336°
2026-05-05 18:56 39.34848 12.18319 31830 ft 437 kts 336°
2026-05-05 18:56 39.37641 12.16770 32233 ft 436 kts 336°
2026-05-05 18:57 39.40421 12.15223 32614 ft 435 kts 336°
2026-05-05 18:57 39.43185 12.13685 32981 ft 434 kts 336°
2026-05-05 18:57 39.45966 12.12137 33356 ft 433 kts 336°
2026-05-05 18:57 39.48728 12.10597 33717 ft 432 kts 336°
2026-05-05 18:58 39.51493 12.09054 33960 ft 432 kts 336°
2026-05-05 18:58 39.53356 12.08013 33997 ft 427 kts 336°
2026-05-05 18:58 39.58703 12.05018 34008 ft 419 kts 336°
2026-05-05 18:59 39.64039 12.02018 34006 ft 418 kts 336°
2026-05-05 18:59 39.69376 11.99030 34008 ft 419 kts 338°
2026-05-05 19:00 39.75025 11.96720 34011 ft 429 kts 341°
2026-05-05 19:00 39.80685 11.94189 34009 ft 431 kts 341°
2026-05-05 19:01 39.86261 11.91451 34008 ft 422 kts 336°
2026-05-05 19:01 39.91567 11.88314 34007 ft 418 kts 335°
2026-05-05 19:02 39.96832 11.85111 34009 ft 417 kts 335°
2026-05-05 19:02 40.02096 11.81928 34010 ft 417 kts 335°
2026-05-05 19:03 40.07377 11.78791 34009 ft 417 kts 337°
2026-05-05 19:03 40.12769 11.76019 34005 ft 416 kts 340°
2026-05-05 19:04 40.18171 11.73432 34000 ft 416 kts 340°
2026-05-05 19:04 40.23597 11.70765 34000 ft 416 kts 339°
2026-05-05 19:05 40.29003 11.68037 33998 ft 416 kts 339°
2026-05-05 19:05 40.34399 11.65291 33997 ft 416 kts 339°
2026-05-05 19:06 40.39796 11.62550 33996 ft 416 kts 339°
2026-05-05 19:06 40.45202 11.59806 33998 ft 416 kts 339°
2026-05-05 19:07 40.50607 11.57066 33998 ft 416 kts 339°
2026-05-05 19:07 40.56010 11.54313 33998 ft 416 kts 339°
2026-05-05 19:08 40.61403 11.51557 33997 ft 416 kts 339°
2026-05-05 19:08 40.66804 11.48804 33996 ft 416 kts 339°
2026-05-05 19:09 40.72195 11.46036 33996 ft 416 kts 339°
2026-05-05 19:09 40.77588 11.43259 33997 ft 416 kts 339°
2026-05-05 19:10 40.82986 11.40478 33997 ft 416 kts 339°
2026-05-05 19:10 40.88384 11.37704 34001 ft 417 kts 339°
2026-05-05 19:11 40.93786 11.34921 34002 ft 416 kts 339°
2026-05-05 19:11 40.99185 11.32129 34002 ft 416 kts 339°
2026-05-05 19:12 41.04580 11.29339 34002 ft 416 kts 339°
2026-05-05 19:12 41.09980 11.26541 34003 ft 416 kts 339°
2026-05-05 19:13 41.15373 11.23738 34001 ft 416 kts 339°
2026-05-05 19:13 41.20763 11.20928 34002 ft 416 kts 339°
2026-05-05 19:14 41.26155 11.18121 34002 ft 416 kts 338°
2026-05-05 19:14 41.31544 11.15306 34000 ft 416 kts 338°
2026-05-05 19:15 41.36933 11.12485 34000 ft 416 kts 339°
2026-05-05 19:15 41.42283 11.09686 33998 ft 416 kts 338°
2026-05-05 19:16 41.47666 11.06859 33996 ft 416 kts 338°
2026-05-05 19:16 41.53044 11.04025 33998 ft 416 kts 338°
2026-05-05 19:17 41.58424 11.01191 33998 ft 416 kts 338°
2026-05-05 19:17 41.63804 10.98365 33997 ft 416 kts 338°
2026-05-05 19:18 41.69183 10.95530 33997 ft 415 kts 338°
2026-05-05 19:18 41.74556 10.92681 33995 ft 415 kts 338°
2026-05-05 19:19 41.79927 10.89823 33996 ft 415 kts 338°
2026-05-05 19:19 41.85300 10.86961 33995 ft 415 kts 338°
2026-05-05 19:20 41.90671 10.84101 33995 ft 415 kts 338°
2026-05-05 19:20 41.96042 10.81241 33992 ft 415 kts 338°
2026-05-05 19:21 42.01408 10.78376 33994 ft 415 kts 338°
2026-05-05 19:21 42.06774 10.75506 33993 ft 415 kts 338°
2026-05-05 19:22 42.12139 10.72628 33992 ft 415 kts 338°
2026-05-05 19:22 42.17498 10.69739 33993 ft 415 kts 338°
2026-05-05 19:23 42.22862 10.66857 33992 ft 415 kts 338°
2026-05-05 19:23 42.28220 10.63963 33992 ft 415 kts 338°
2026-05-05 19:24 42.33531 10.61096 33992 ft 415 kts 338°
2026-05-05 19:24 42.38940 10.58174 33992 ft 415 kts 338°
2026-05-05 19:25 42.44296 10.55270 33993 ft 415 kts 338°
2026-05-05 19:25 42.49617 10.52372 33993 ft 415 kts 338°
2026-05-05 19:26 42.55005 10.49440 33993 ft 415 kts 338°
2026-05-05 19:26 42.60362 10.46524 33993 ft 415 kts 338°
2026-05-05 19:27 42.65718 10.43602 33994 ft 415 kts 338°
2026-05-05 19:27 42.71072 10.40666 33993 ft 415 kts 338°
2026-05-05 19:28 42.76242 10.37198 33991 ft 415 kts 331°
2026-05-05 19:28 42.81294 10.33394 33993 ft 415 kts 331°
2026-05-05 19:29 42.86316 10.29602 33994 ft 415 kts 331°
2026-05-05 19:29 42.91367 10.25785 33993 ft 415 kts 331°
2026-05-05 19:30 42.96512 10.22224 33994 ft 415 kts 336°
2026-05-05 19:30 43.01835 10.19177 33993 ft 415 kts 338°
2026-05-05 19:31 43.07182 10.16193 33997 ft 415 kts 338°
2026-05-05 19:31 43.12518 10.13180 33994 ft 415 kts 337°
2026-05-05 19:32 43.17846 10.10139 33997 ft 415 kts 337°
2026-05-05 19:32 43.23175 10.07084 33997 ft 415 kts 337°
2026-05-05 19:33 43.28497 10.04028 33995 ft 415 kts 337°
2026-05-05 19:33 43.33816 10.00980 33997 ft 415 kts 337°
2026-05-05 19:34 43.39140 9.97928 33996 ft 415 kts 337°
2026-05-05 19:35 43.47129 9.93314 33998 ft 415 kts 337°
2026-05-05 19:35 43.52456 9.90241 33999 ft 415 kts 337°
2026-05-05 19:36 43.57777 9.87164 33998 ft 415 kts 337°
2026-05-05 19:36 43.63096 9.84075 33996 ft 415 kts 337°
2026-05-05 19:37 43.68416 9.80976 33998 ft 415 kts 337°
2026-05-05 19:37 43.73734 9.77885 33996 ft 415 kts 337°
2026-05-05 19:38 43.79049 9.74780 33998 ft 414 kts 337°
2026-05-05 19:38 43.84363 9.71670 33997 ft 414 kts 337°
2026-05-05 19:39 43.89672 9.68557 33998 ft 414 kts 337°
2026-05-05 19:39 43.94988 9.65444 33996 ft 415 kts 337°
2026-05-05 19:40 44.00317 9.62316 34005 ft 414 kts 337°
2026-05-05 19:40 44.05555 9.59223 34006 ft 404 kts 337°
2026-05-05 19:41 44.10706 9.56181 34010 ft 401 kts 337°
2026-05-05 19:41 44.15837 9.53153 34008 ft 400 kts 337°
2026-05-05 19:42 44.20956 9.50133 34009 ft 400 kts 337°
2026-05-05 19:42 44.26077 9.47095 34006 ft 400 kts 337°
2026-05-05 19:43 44.31168 9.44064 33527 ft 400 kts 337°
2026-05-05 19:43 44.33720 9.42544 33075 ft 398 kts 337°
2026-05-05 19:43 44.36256 9.41033 32621 ft 395 kts 337°
2026-05-05 19:43 44.38775 9.39534 32201 ft 392 kts 337°
2026-05-05 19:44 44.41277 9.38041 31805 ft 389 kts 337°
2026-05-05 19:44 44.43757 9.36556 31402 ft 386 kts 337°
2026-05-05 19:44 44.46224 9.35078 30923 ft 385 kts 337°
2026-05-05 19:44 44.48687 9.33603 30427 ft 385 kts 337°
2026-05-05 19:45 44.50317 9.32629 30085 ft 383 kts 337°
2026-05-05 19:45 44.52786 9.31150 29582 ft 380 kts 337°
2026-05-05 19:45 44.55207 9.29697 29082 ft 376 kts 336°
2026-05-05 19:45 44.57602 9.28256 28569 ft 373 kts 336°
2026-05-05 19:46 44.59948 9.26843 28048 ft 371 kts 336°
2026-05-05 19:46 44.62309 9.25421 27522 ft 368 kts 336°
2026-05-05 19:46 44.64657 9.24009 26995 ft 365 kts 336°
2026-05-05 19:46 44.66981 9.22608 26470 ft 362 kts 336°
2026-05-05 19:47 44.69287 9.21215 25943 ft 359 kts 336°
2026-05-05 19:47 44.71578 9.19830 25417 ft 357 kts 336°
2026-05-05 19:47 44.73808 9.18339 24891 ft 353 kts 328°
2026-05-05 19:47 44.75766 9.16283 24367 ft 351 kts 316°
2026-05-05 19:48 44.77364 9.13710 23841 ft 349 kts 304°
2026-05-05 19:48 44.78617 9.10800 23317 ft 347 kts 300°
2026-05-05 19:48 44.79831 9.07872 22793 ft 346 kts 300°
2026-05-05 19:48 44.81054 9.04942 22270 ft 348 kts 300°
2026-05-05 19:49 44.82282 9.02009 21742 ft 349 kts 300°
2026-05-05 19:49 44.83519 8.99056 21216 ft 350 kts 300°
2026-05-05 19:49 44.84756 8.96093 20683 ft 350 kts 300°
2026-05-05 19:49 44.85979 8.93157 20217 ft 345 kts 300°
2026-05-05 19:50 44.87176 8.90267 19786 ft 337 kts 300°
2026-05-05 19:50 44.88341 8.87445 19364 ft 330 kts 300°
2026-05-05 19:50 44.89489 8.84659 18939 ft 327 kts 300°
2026-05-05 19:50 44.90638 8.81876 18511 ft 325 kts 300°
2026-05-05 19:51 44.91771 8.79139 18083 ft 321 kts 300°
2026-05-05 19:51 44.92890 8.76439 17641 ft 316 kts 300°
2026-05-05 19:51 44.93986 8.73786 17234 ft 311 kts 300°
2026-05-05 19:51 44.95064 8.71166 16830 ft 306 kts 300°
2026-05-05 19:52 44.96119 8.68594 16428 ft 300 kts 300°
2026-05-05 19:52 44.97151 8.66077 16053 ft 293 kts 300°
2026-05-05 19:52 44.98161 8.63612 15683 ft 286 kts 300°
2026-05-05 19:52 44.99283 8.61336 15298 ft 279 kts 313°
2026-05-05 19:53 45.00729 8.59569 14925 ft 273 kts 327°
2026-05-05 19:53 45.02427 8.58362 14556 ft 274 kts 341°
2026-05-05 19:53 45.04287 8.57727 14185 ft 277 kts 349°
2026-05-05 19:53 45.06183 8.57216 13835 ft 278 kts 349°
2026-05-05 19:54 45.08087 8.56695 13511 ft 279 kts 349°
2026-05-05 19:54 45.09989 8.56170 13178 ft 277 kts 349°
2026-05-05 19:54 45.11870 8.55647 12850 ft 273 kts 349°
2026-05-05 19:54 45.13723 8.55131 12526 ft 270 kts 349°
2026-05-05 19:55 45.15544 8.54624 12202 ft 266 kts 349°
2026-05-05 19:55 45.17362 8.54116 11871 ft 265 kts 349°
2026-05-05 19:55 45.19162 8.53612 11550 ft 263 kts 349°
2026-05-05 19:55 45.20962 8.53109 11227 ft 263 kts 349°
2026-05-05 19:56 45.22761 8.52609 10899 ft 263 kts 349°
2026-05-05 19:56 45.24557 8.52114 10570 ft 263 kts 349°
2026-05-05 19:56 45.26343 8.51624 10243 ft 259 kts 349°
2026-05-05 19:56 45.28096 8.51141 9916 ft 254 kts 349°
2026-05-05 19:57 45.29821 8.50691 9587 ft 250 kts 354°
2026-05-05 19:57 45.31508 8.51035 9256 ft 245 kts 25°
2026-05-05 19:57 45.32831 8.52500 8934 ft 243 kts 54°
2026-05-05 19:57 45.33486 8.54686 8609 ft 242 kts 79°
2026-05-05 19:58 45.33806 8.57036 8288 ft 243 kts 79°
2026-05-05 19:58 45.34127 8.59391 7963 ft 242 kts 79°
2026-05-05 19:58 45.34446 8.61734 7634 ft 241 kts 80°
2026-05-05 19:58 45.34365 8.64072 7300 ft 238 kts 110°
2026-05-05 19:59 45.33442 8.65973 6974 ft 236 kts 142°
2026-05-05 19:59 45.31968 8.66917 6655 ft 235 kts 169°
2026-05-05 19:59 45.30361 8.67363 6326 ft 235 kts 169°
2026-05-05 19:59 45.28756 8.67801 6053 ft 234 kts 169°
2026-05-05 20:00 45.27161 8.68237 6007 ft 234 kts 169°
2026-05-05 20:00 45.25559 8.68673 6015 ft 234 kts 169°
2026-05-05 20:00 45.23956 8.69105 6016 ft 235 kts 169°
2026-05-05 20:00 45.22355 8.69541 6016 ft 235 kts 169°
2026-05-05 20:01 45.20774 8.69974 6016 ft 235 kts 169°
2026-05-05 20:01 45.19150 8.70419 6016 ft 235 kts 169°
2026-05-05 20:01 45.17546 8.70859 6016 ft 235 kts 169°
2026-05-05 20:01 45.15963 8.71294 6016 ft 235 kts 169°
2026-05-05 20:02 45.14342 8.71738 6016 ft 235 kts 169°
2026-05-05 20:02 45.12769 8.72170 6012 ft 231 kts 169°
2026-05-05 20:02 45.11199 8.72599 6013 ft 229 kts 169°
2026-05-05 20:02 45.09641 8.73027 6014 ft 228 kts 169°
2026-05-05 20:03 45.08099 8.73453 6014 ft 225 kts 169°
2026-05-05 20:03 45.06566 8.73876 6015 ft 224 kts 169°
2026-05-05 20:03 45.05037 8.74298 6015 ft 224 kts 168°
2026-05-05 20:03 45.03645 8.75223 6017 ft 224 kts 137°
2026-05-05 20:04 45.02845 8.77077 6014 ft 224 kts 103°
2026-05-05 20:04 45.02904 8.79251 6022 ft 224 kts 74°
2026-05-05 20:04 45.03309 8.81375 6016 ft 224 kts 78°
2026-05-05 20:04 45.03563 8.83547 6005 ft 224 kts 89°
2026-05-05 20:05 45.03142 8.85628 6010 ft 224 kts 124°
2026-05-05 20:05 45.01970 8.87021 6016 ft 224 kts 158°
2026-05-05 20:05 45.00442 8.87267 6025 ft 224 kts 187°
2026-05-05 20:05 44.98912 8.86847 6019 ft 224 kts 193°
2026-05-05 20:06 44.97395 8.86342 6017 ft 224 kts 193°
2026-05-05 20:06 44.95883 8.85828 6016 ft 224 kts 194°
2026-05-05 20:06 44.94366 8.85312 6016 ft 224 kts 194°
2026-05-05 20:06 44.92850 8.84796 6016 ft 224 kts 194°
2026-05-05 20:07 44.91335 8.84280 6016 ft 224 kts 194°
2026-05-05 20:07 44.89823 8.83765 6016 ft 224 kts 194°
2026-05-05 20:07 44.88293 8.83358 6005 ft 224 kts 179°
2026-05-05 20:07 44.86814 8.83975 6012 ft 224 kts 145°
2026-05-05 20:08 44.85834 8.85639 6014 ft 222 kts 111°
2026-05-05 20:08 44.85692 8.87724 6014 ft 215 kts 76°
2026-05-05 20:08 44.86343 8.89600 6054 ft 214 kts 56°
2026-05-05 20:08 44.87201 8.91308 6014 ft 213 kts 54°
2026-05-05 20:09 44.88075 8.92992 6013 ft 213 kts 53°
2026-05-05 20:09 44.88951 8.94680 6015 ft 213 kts 53°
2026-05-05 20:09 44.89829 8.96369 6016 ft 213 kts 53°
2026-05-05 20:09 44.90895 8.97800 6011 ft 213 kts 30°
2026-05-05 20:10 44.92313 8.98335 6014 ft 214 kts
2026-05-05 20:10 44.93767 8.97937 6020 ft 213 kts 345°
2026-05-05 20:10 44.95199 8.97395 6017 ft 213 kts 345°
2026-05-05 20:10 44.96630 8.96853 6016 ft 213 kts 345°
2026-05-05 20:11 44.98060 8.96308 6016 ft 213 kts 345°
2026-05-05 20:11 44.99474 8.95703 6015 ft 213 kts 338°
2026-05-05 20:11 45.00885 8.95096 6004 ft 213 kts 357°
2026-05-05 20:11 45.02297 8.95624 6012 ft 214 kts 32°
2026-05-05 20:12 45.03458 8.96929 6019 ft 213 kts 37°
2026-05-05 20:12 45.04819 8.97741 6021 ft 213 kts 15°
2026-05-05 20:12 45.06261 8.98217 6011 ft 213 kts
2026-05-05 20:12 45.07715 8.97876 6020 ft 213 kts 341°
2026-05-05 20:13 45.09060 8.97075 6017 ft 213 kts 333°
2026-05-05 20:13 45.10372 8.96105 6016 ft 213 kts 332°
2026-05-05 20:13 45.11678 8.95120 6016 ft 213 kts 332°
2026-05-05 20:13 45.12983 8.94133 6016 ft 213 kts 332°
2026-05-05 20:14 45.14288 8.93146 6016 ft 213 kts 332°
2026-05-05 20:14 45.15613 8.92142 6016 ft 213 kts 332°
2026-05-05 20:14 45.16899 8.91170 6016 ft 213 kts 332°
2026-05-05 20:14 45.18253 8.90314 6016 ft 213 kts 338°
2026-05-05 20:15 45.19631 8.89549 6016 ft 213 kts 339°
2026-05-05 20:15 45.21030 8.88781 6016 ft 222 kts 339°
2026-05-05 20:15 45.22504 8.87973 5991 ft 230 kts 339°
2026-05-05 20:15 45.24001 8.87151 6017 ft 232 kts 339°
2026-05-05 20:16 45.25518 8.86318 6018 ft 235 kts 339°
2026-05-05 20:16 45.27044 8.85480 6016 ft 235 kts 339°
2026-05-05 20:16 45.28582 8.84668 6016 ft 236 kts 341°
2026-05-05 20:16 45.30153 8.83999 5986 ft 236 kts 344°
2026-05-05 20:17 45.31734 8.83398 5741 ft 235 kts 345°
2026-05-05 20:17 45.33315 8.82816 5497 ft 234 kts 345°
2026-05-05 20:17 45.34888 8.82237 5246 ft 233 kts 345°
2026-05-05 20:17 45.36459 8.81651 4996 ft 233 kts 345°
2026-05-05 20:18 45.38025 8.81061 4745 ft 232 kts 345°
2026-05-05 20:18 45.39582 8.80470 4498 ft 231 kts 345°
2026-05-05 20:18 45.41133 8.79878 4249 ft 230 kts 345°
2026-05-05 20:18 45.42672 8.79270 4082 ft 229 kts 345°
2026-05-05 20:19 45.44209 8.78649 3996 ft 228 kts 344°
2026-05-05 20:19 45.45726 8.78124 3818 ft 222 kts 348°
2026-05-05 20:19 45.47212 8.77701 3554 ft 214 kts 349°
2026-05-05 20:19 45.48654 8.77306 3267 ft 208 kts 349°
2026-05-05 20:20 45.50049 8.76923 2996 ft 199 kts 349°
2026-05-05 20:20 45.51345 8.76567 2756 ft 182 kts 349°
2026-05-05 20:20 45.52563 8.76233 2509 ft 175 kts 349°
2026-05-05 20:20 45.53747 8.75907 2283 ft 169 kts 349°
2026-05-05 20:21 45.54847 8.75604 2063 ft 154 kts 349°
2026-05-05 20:21 45.55866 8.75324 1862 ft 144 kts 349°
2026-05-05 20:21 45.56823 8.75060 1678 ft 136 kts 349°
2026-05-05 20:21 45.57740 8.74808 1500 ft 132 kts 349°
2026-05-05 20:22 45.58638 8.74560 1329 ft 131 kts 349°
2026-05-05 20:22 45.59526 8.74315 1157 ft 129 kts 349°
2026-05-05 20:22 45.60410 8.74071 991 ft 131 kts 349°
2026-05-05 20:22 45.61322 8.73820 814 ft 134 kts 349°
2026-05-05 20:23 45.62206 8.73569 761 ft 121 kts 348°
2026-05-05 20:23 45.62900 8.73371 758 ft 72 kts 350°
2026-05-05 20:23 45.63355 8.73254 758 ft 58 kts 348°
2026-05-05 20:23 45.63654 8.73125 761 ft 35 kts 330°
2026-05-05 20:24 45.63761 8.73008 759 ft 13 kts 315°
2026-05-05 20:24 45.63815 8.72924 759 ft 8 kts 307°
2026-05-05 20:24 45.63848 8.72856 758 ft 8 kts 305°
2026-05-05 20:24 45.63857 8.72840 758 ft 2 kts 309°
2026-05-05 20:25 45.63870 8.72820 755 ft 3 kts 317°
2026-05-05 20:25 45.63891 8.72798 758 ft 0 kts 327°
2026-05-05 20:25 45.63893 8.72797 758 ft 1 kts 327°
2026-05-05 20:26 45.63894 8.72796 755 ft 1 kts 328°
2026-05-05 20:26 45.63901 8.72791 756 ft 2 kts 336°
2026-05-05 20:26 45.63917 8.72786 759 ft 3 kts 349°
2026-05-05 20:27 45.63940 8.72780 755 ft 4 kts 351°
2026-05-05 20:27 45.63972 8.72774 756 ft 5 kts 353°
2026-05-05 20:27 45.64012 8.72766 759 ft 6 kts 351°
2026-05-05 20:27 45.64060 8.72754 758 ft 7 kts 349°
2026-05-05 20:28 45.64095 8.72744 757 ft 8 kts 349°
2026-05-05 20:28 45.64154 8.72727 758 ft 9 kts 349°
2026-05-05 20:28 45.64221 8.72709 757 ft 10 kts 349°
2026-05-05 20:28 45.64295 8.72688 757 ft 11 kts 349°
2026-05-05 20:29 45.64378 8.72669 756 ft 13 kts 356°
2026-05-05 20:29 45.64452 8.72657 755 ft 9 kts 339°
2026-05-05 20:29 45.64470 8.72577 756 ft 10 kts 261°
2026-05-05 20:29 45.64461 8.72485 759 ft 6 kts 274°
2026-05-05 20:30 45.64487 8.72472 755 ft 5 kts 351°
2026-05-05 20:30 45.64522 8.72465 756 ft 6 kts 356°
2026-05-05 20:30 45.64538 8.72462 757 ft 0 kts 351°